TimeCST,TemperatureF,Dew PointF,Humidity,Sea Level PressureIn,VisibilityMPH,Wind Direction,Wind SpeedMPH,Gust SpeedMPH,PrecipitationIn,Events,Conditions,WindDirDegrees,DateUTC
12:15 AM,-14.8,-29.2,48,30.34,10.0,West,4.6,-,N/A,,Clear,280,2014-03-02 06:15:00
12:35 AM,-14.8,-20.2,77,30.34,10.0,West,5.8,-,N/A,,Clear,260,2014-03-02 06:35:00
12:55 AM,-14.8,-27.4,53,30.34,10.0,WSW,6.9,-,N/A,,Clear,250,2014-03-02 06:55:00
1:15 AM,-14.8,-25.6,58,30.35,10.0,WSW,4.6,-,N/A,,Clear,240,2014-03-02 07:15:00
1:35 AM,-16.6,-27.4,58,30.35,10.0,WSW,6.9,-,N/A,,Clear,250,2014-03-02 07:35:00
1:55 AM,-16.6,-25.6,64,30.35,10.0,West,8.1,-,N/A,,Clear,260,2014-03-02 07:55:00
2:15 AM,-16.6,-22.0,76,30.34,10.0,WSW,6.9,-,N/A,,Clear,240,2014-03-02 08:15:00
2:35 AM,-16.6,-25.6,64,30.35,10.0,SW,6.9,-,N/A,,Clear,230,2014-03-02 08:35:00
2:55 AM,-16.6,-27.4,58,30.35,10.0,WSW,10.4,-,N/A,,Clear,240,2014-03-02 08:55:00
3:15 AM,-16.6,-25.6,64,30.34,10.0,WSW,9.2,-,N/A,,Clear,250,2014-03-02 09:15:00
3:35 AM,-16.6,-23.8,70,30.35,10.0,WSW,10.4,-,N/A,,Clear,250,2014-03-02 09:35:00
3:55 AM,-18.4,-27.4,63,30.35,10.0,West,8.1,-,N/A,,Clear,260,2014-03-02 09:55:00
4:15 AM,-16.6,-29.2,53,30.35,10.0,WSW,10.4,-,N/A,,Clear,250,2014-03-02 10:15:00
4:35 AM,-18.4,-25.6,70,30.35,10.0,WSW,9.2,-,N/A,,Clear,250,2014-03-02 10:35:00
4:55 AM,-18.4,-27.4,63,30.34,10.0,West,11.5,-,N/A,,Clear,260,2014-03-02 10:55:00
5:15 AM,-18.4,-29.2,58,30.35,10.0,WSW,10.4,-,N/A,,Clear,250,2014-03-02 11:15:00
5:35 AM,-18.4,-27.4,63,30.35,10.0,West,10.4,-,N/A,,Clear,260,2014-03-02 11:35:00
5:55 AM,-18.4,-29.2,58,30.35,10.0,WSW,12.7,-,N/A,,Clear,250,2014-03-02 11:55:00
6:15 AM,-18.4,-27.4,63,30.35,10.0,WSW,10.4,-,N/A,,Clear,250,2014-03-02 12:15:00
6:35 AM,-18.4,-27.4,63,30.34,10.0,WSW,11.5,-,N/A,,Clear,250,2014-03-02 12:35:00
6:55 AM,-18.4,-9999,N/A,30.34,10.0,WSW,12.7,-,N/A,,Clear,240,2014-03-02 12:55:00
7:15 AM,-18.4,-27.4,63,30.34,10.0,WSW,12.7,-,N/A,,Clear,250,2014-03-02 13:15:00
7:35 AM,-18.4,-25.6,70,30.35,10.0,WSW,13.8,-,N/A,,Clear,250,2014-03-02 13:35:00
7:55 AM,-18.4,-25.6,70,30.35,10.0,WSW,11.5,-,N/A,,Clear,250,2014-03-02 13:55:00
8:15 AM,-16.6,-25.6,64,30.34,10.0,WSW,8.1,-,N/A,,Clear,250,2014-03-02 14:15:00
8:35 AM,-14.8,-23.8,64,30.34,10.0,WSW,10.4,-,N/A,,Clear,250,2014-03-02 14:35:00
8:55 AM,-14.8,-23.8,64,30.34,10.0,WSW,11.5,-,N/A,,Clear,240,2014-03-02 14:55:00
9:15 AM,-13.0,-23.8,59,30.34,10.0,West,10.4,-,N/A,,Clear,260,2014-03-02 15:15:00
9:35 AM,-11.2,-20.2,64,30.34,10.0,West,12.7,-,N/A,,Clear,260,2014-03-02 15:35:00
9:55 AM,-9.4,-20.2,59,30.34,10.0,West,11.5,-,N/A,,Clear,260,2014-03-02 15:55:00
10:15 AM,-9.4,-22.0,54,30.34,10.0,West,12.7,-,N/A,,Clear,270,2014-03-02 16:15:00
10:35 AM,-7.6,-20.2,54,30.34,10.0,West,12.7,-,N/A,,Clear,270,2014-03-02 16:35:00
10:55 AM,-7.6,-20.2,54,30.34,10.0,West,12.7,-,N/A,,Clear,260,2014-03-02 16:55:00
11:15 AM,-5.8,-20.2,50,30.33,10.0,West,10.4,-,N/A,,Clear,270,2014-03-02 17:15:00
11:35 AM,-5.8,-18.4,55,30.32,10.0,WSW,12.7,-,N/A,,Clear,240,2014-03-02 17:35:00
11:55 AM,-2.2,-18.4,46,30.32,10.0,West,12.7,-,N/A,,Clear,260,2014-03-02 17:55:00
12:15 PM,-2.2,-18.4,46,30.31,10.0,West,13.8,-,N/A,,Clear,260,2014-03-02 18:15:00
12:35 PM,-0.4,-18.4,43,30.30,10.0,WSW,15.0,-,N/A,,Clear,250,2014-03-02 18:35:00
12:55 PM,-0.4,-16.6,46,30.30,10.0,WSW,12.7,16.1,N/A,,Clear,250,2014-03-02 18:55:00
1:15 PM,-0.4,-16.6,46,30.29,10.0,West,11.5,-,N/A,,Clear,260,2014-03-02 19:15:00
1:35 PM,1.4,-16.6,43,30.29,10.0,West,15.0,-,N/A,,Clear,270,2014-03-02 19:35:00
1:55 PM,1.4,-14.8,47,30.29,10.0,WSW,12.7,17.3,N/A,,Clear,250,2014-03-02 19:55:00
2:15 PM,3.2,-14.8,43,30.30,10.0,NW,11.5,16.1,N/A,,Clear,320,2014-03-02 20:15:00
2:35 PM,3.2,-13.0,47,30.29,10.0,NW,11.5,18.4,N/A,,Clear,320,2014-03-02 20:35:00
2:55 PM,3.2,-13.0,47,30.29,10.0,WNW,12.7,-,N/A,,Clear,300,2014-03-02 20:55:00
3:15 PM,3.2,-14.8,43,30.29,10.0,WNW,12.7,16.1,N/A,,Clear,300,2014-03-02 21:15:00
3:35 PM,3.2,-14.8,43,30.29,10.0,WNW,10.4,-,N/A,,Clear,300,2014-03-02 21:35:00
3:55 PM,3.2,-14.8,43,30.29,10.0,WNW,11.5,-,N/A,,Clear,290,2014-03-02 21:55:00
4:15 PM,3.2,-14.8,43,30.29,10.0,WNW,9.2,17.3,N/A,,Clear,300,2014-03-02 22:15:00
4:35 PM,3.2,-13.0,47,30.29,10.0,NW,9.2,-,N/A,,Clear,310,2014-03-02 22:35:00
4:55 PM,3.2,-13.0,47,30.29,10.0,WNW,10.4,-,N/A,,Clear,300,2014-03-02 22:55:00
5:15 PM,1.4,-13.0,51,30.30,10.0,WNW,10.4,-,N/A,,Clear,300,2014-03-02 23:15:00
5:35 PM,1.4,-14.8,47,30.31,10.0,NW,13.8,-,N/A,,Clear,310,2014-03-02 23:35:00
5:55 PM,1.4,-16.6,43,30.31,10.0,WNW,8.1,-,N/A,,Clear,290,2014-03-02 23:55:00
6:15 PM,1.4,-16.6,43,30.31,10.0,West,8.1,-,N/A,,Clear,280,2014-03-03 00:15:00
6:35 PM,-0.4,-16.6,46,30.32,10.0,West,8.1,-,N/A,,Clear,280,2014-03-03 00:35:00
6:55 PM,-0.4,-18.4,43,30.32,10.0,West,9.2,-,N/A,,Clear,260,2014-03-03 00:55:00
7:15 PM,-0.4,-13.0,55,30.32,10.0,WSW,8.1,-,N/A,,Clear,250,2014-03-03 01:15:00
7:35 PM,-2.2,-18.4,46,30.32,10.0,West,8.1,-,N/A,,Clear,260,2014-03-03 01:35:00
7:55 PM,-2.2,-16.6,50,30.33,10.0,WSW,6.9,-,N/A,,Clear,250,2014-03-03 01:55:00
8:15 PM,-4.0,-18.4,50,30.33,10.0,West,8.1,-,N/A,,Clear,260,2014-03-03 02:15:00
8:35 PM,-2.2,-16.6,50,30.33,10.0,West,8.1,-,N/A,,Clear,270,2014-03-03 02:35:00
8:55 PM,-4.0,-18.4,50,30.33,10.0,West,6.9,-,N/A,,Clear,270,2014-03-03 02:55:00
9:15 PM,-4.0,-16.6,55,30.34,10.0,West,8.1,-,N/A,,Clear,270,2014-03-03 03:15:00
9:35 PM,-4.0,-16.6,55,30.35,10.0,WSW,5.8,-,N/A,,Clear,250,2014-03-03 03:35:00
9:55 PM,-7.6,-20.2,54,30.35,10.0,WSW,6.9,-,N/A,,Clear,240,2014-03-03 03:55:00
10:15 PM,-7.6,-20.2,54,30.35,10.0,WSW,5.8,-,N/A,,Clear,240,2014-03-03 04:15:00
10:35 PM,-7.6,-16.6,65,30.35,10.0,WSW,8.1,-,N/A,,Clear,240,2014-03-03 04:35:00
10:55 PM,-7.6,-20.2,54,30.35,10.0,West,9.2,-,N/A,,Clear,260,2014-03-03 04:55:00
11:15 PM,-7.6,-14.8,71,30.35,10.0,West,6.9,-,N/A,,Clear,260,2014-03-03 05:15:00
11:35 PM,-9.4,-20.2,59,30.36,10.0,West,8.1,-,N/A,,Clear,260,2014-03-03 05:35:00
11:55 PM,-9.4,-18.4,65,30.36,10.0,Calm,Calm,-,N/A,,Clear,0,2014-03-03 05:55:00